Location: Blandford
(50.8667°N, 2.1667°W)
Time: 23:25:58
(UTC+00:00)

MetOp-B - Pass Details

Date: 09 April 2020
Orbit: 818 x 822 km, 98.7° (Epoch: 23 May)

Event Time Altitude Azimuth Distance (km) Brightness Sun altitude
Exits shadow 20:32:21 20° 147° (SSE) 1,836 5.4 -14.8°
Maximum altitude 20:36:06 65° 70° (ENE) 906 4.2 -15.3°
Drops below altitude 10° 20:41:26 10° 350° (N) 2,432 7.2 -16.0°
Sets 20:43:48 0° 347° (NNW) 3,369 8.1 -16.3°
